User: anonymous   Login
Location: Fort Wayne
(41.1310°N, 85.1290°W)
Time: 19:46:48
(UTC-05:00)
Language:

Cosmos 2082 - Orbit

View from above orbital plane
View from above orbital plane
View from above satellite
View from above satellite

Ground track
Ground track

The orbit data is extracted from the following two-line orbital elements,

1 20624U 90046A   15029.13622841  .00000322  00000-0  19358-3 0  1254
2 20624 071.0387 235.5147 0016994 274.1409 224.7631 14.14125669274192
Epoch (UTC): 29 January 2015 03:16:10
Eccentricity: 0.0016994
inclination: 71.0387°
perigee height: 833 km
apogee height: 857 km
right ascension of ascending node: 235.5147°
argument of perigee: 274.1409°
revolutions per day: 14.14125669
mean anomaly at epoch: 224.7631°
orbit number at epoch: 27419

The dashed part of the orbit path shows where the satellite is in the earth's shadow,  

DLR